Location: Bidwell Hollow
(37.7387°N, 90.1707°W)
Time: 01:55:20
(UTC+00:00)

Vanguard 1 Rocket - All Passes

Search period start: 14 May 2026 00:00
Search period end: 24 May 2026 00:00
Orbit: 655 x 4212 km, 34.3° (Epoch: 13 May)

Date Brightness Start Highest point End Pass type
(mag) Time Alt. Az. Time Alt. Az. Time Alt. Az.
14 May - 00:21:22 10° W 00:35:50 77° S 01:01:00 10° ESE daylight
14 May - 02:48:16 10° W 03:07:09 55° SSW 03:31:58 10° SE visible
14 May - 05:20:11 10° W 05:37:21 25° SW 05:55:00 10° S visible
14 May - 18:25:31 10° SSE 18:29:20 15° SE 18:34:19 10° E daylight
14 May - 20:45:04 10° SW 20:53:08 57° SSE 21:08:59 10° E daylight
14 May - 23:08:57 10° W 23:20:49 79° S 23:43:38 10° E daylight
15 May - 01:34:44 10° W 01:51:21 65° SSW 02:16:54 10° SE visible
15 May - 04:03:29 10° W 04:22:15 37° SW 04:43:56 10° SSE visible
15 May - 19:34:17 10° SSW 19:40:46 37° SE 19:52:13 10° E daylight
15 May - 21:56:59 10° WSW 22:06:37 75° S 22:26:04 10° E daylight
16 May - 00:21:52 10° W 00:35:52 73° SSW 01:00:34 10° ESE daylight
16 May - 02:48:47 10° W 03:06:45 48° SSW 03:30:47 10° SSE visible
16 May - 05:22:18 10° W 05:36:41 19° SW 05:51:45 10° S visible
16 May - 18:24:36 10° S 18:29:07 19° SE 18:35:30 10° E daylight
16 May - 20:45:28 10° WSW 20:53:17 63° SSE 21:08:53 10° E daylight
16 May - 23:09:30 10° W 23:21:01 78° S 23:43:21 10° ESE daylight
17 May - 01:35:13 10° W 01:51:10 59° SSW 02:16:03 10° SE visible
17 May - 04:04:31 10° W 04:21:41 30° SW 04:41:51 10° S visible
17 May - 19:34:26 10° SW 19:40:47 44° SSE 19:52:21 10° E daylight
17 May - 21:57:33 10° WSW 22:06:53 77° S 22:25:52 10° E daylight
18 May - 00:22:23 10° W 00:35:55 68° SSW 00:59:58 10° ESE daylight
18 May - 02:49:27 10° W 03:06:23 41° SW 03:29:17 10° SSE visible
18 May - 05:26:04 10° WSW 05:36:09 14° SW 05:46:44 10° SSW visible
18 May - 18:24:13 10° SSW 18:29:00 24° SE 18:36:14 10° E daylight
18 May - 20:45:57 10° WSW 20:53:32 68° SSE 21:08:47 10° E daylight
18 May - 23:10:04 10° W 23:21:13 75° S 23:42:58 10° ESE daylight
19 May - 01:35:46 10° W 01:51:01 52° SSW 02:14:56 10° SE visible
19 May - 04:06:03 10° W 04:21:13 24° SW 04:39:08 10° S visible
19 May - 19:34:45 10° SW 19:40:57 51° SSE 19:52:26 10° E daylight
19 May - 21:58:08 10° W 22:07:12 77° S 22:25:40 10° E daylight
20 May - 00:22:56 10° W 00:35:57 62° SSW 00:59:12 10° SE daylight
20 May - 02:50:21 10° W 03:06:04 35° SW 03:27:21 10° SSE visible
20 May - 18:24:08 10° SSW 18:29:02 30° SE 18:36:44 10° E daylight
20 May - 20:46:30 10° WSW 20:53:52 72° S 21:08:42 10° E daylight
20 May - 23:10:39 10° W 23:21:26 70° SSW 23:42:30 10° ESE daylight
21 May - 01:36:27 10° W 01:50:54 45° SSW 02:13:31 10° SSE visible
21 May - 04:08:25 10° WSW 04:20:53 18° SW 04:35:23 10° S visible
21 May - 17:14:53 10° SSE 17:17:34 14° SE 17:20:45 10° ESE daylight
21 May - 19:35:11 10° WSW 19:41:13 57° SSE 19:52:30 10° E daylight
21 May - 21:58:44 10° W 22:07:32 75° S 22:25:25 10° ESE daylight
22 May - 00:23:32 10° W 00:36:01 55° SSW 00:58:12 10° SE daylight
22 May - 02:51:36 10° W 03:05:51 28° SW 03:24:55 10° S visible
22 May - 18:24:16 10° SW 18:29:11 37° SSE 18:37:07 10° E daylight
22 May - 20:47:05 10° WSW 20:54:15 73° S 21:08:37 10° E daylight
22 May - 23:11:15 10° W 23:21:38 64° SSW 23:41:53 10° ESE daylight
23 May - 01:37:18 10° W 01:50:51 38° SSW 02:11:46 10° SSE visible
23 May - 04:12:49 10° WSW 04:20:43 13° SW 04:29:29 10° SSW visible
23 May - 17:14:10 10° S 17:17:36 19° SE 17:22:01 10° E daylight
23 May - 19:35:42 10° WSW 19:41:35 63° SSE 19:52:35 10° E daylight
23 May - 21:59:21 10° W 22:07:52 71° S 22:25:07 10° ESE daylight
